Home > Weather > Passo Fundo > Past weeks

Flag for Brazil Weather for the Past 2 Weeks in Passo Fundo, Rio Grande do Sul, Brazil

Now
75 °F

Clear.


Feels Like: 75 °F
Forecast: 66 / 83 °F
Wind: 12 mph from Southeast

Location: Porto Alegre Aero-Porto

Current Time: Feb 7, 2016 at 12:44:20 AM

Latest Report: Feb 7, 2016 at 12:00 AM


Visibility: 10 mi

Pressure: 30.07 "Hg (27.81 "Hg at 680m altitude)

Humidity: 89%

Dew point: 72 °F

Location of Passo FundoLocation

Historic Weather in Passo Fundo — Graph

°F

Passo Fundo Temperature Yesterday

Maximum temperature yesterday: 84 °F (at 3:00 PM)
Minimum temperature yesterday: 70 °F (at 5:00 AM)
Average temperature yesterday: 77 °F

High & Low Weather Summary for the Past Weeks

 TemperatureHumidityPressure
High100 °F (Jan 25, 3:00 PM)100% (Jan 27, 5:00 AM)30.09 "Hg (Jan 27, 5:00 AM)
Low39 °F (Jan 31, 3:00 PM)23% (Jan 24, 3:00 PM)29.62 "Hg (Jan 25, 5:00 PM)
Average77 °F75%29.91 "Hg
* Reported Jan 22 11:00 PM — Feb 6 11:00 PM, Passo Fundo, Weather by CustomWeather, © 2016

Note: Actual official high and low records may vary slightly from our data, if they occured in-between our weather recording intervals... More about our weather records

Advertising

Passo Fundo Weather History for the Previous 24 Hours

 ConditionsComfort  
Time TempWeatherWind HumidityBarometerVisibility
11:00 PM
Sat, Feb 6
75 °FClear.13 mph83%30.04 "Hg10 mi
10:00 PM77 °FClear.12 mph79%30.07 "Hg10 mi
9:00 PM79 °FClear.13 mph74%30.04 "Hg10 mi
8:00 PM81 °FScattered clouds.14 mph70%30.01 "HgN/A
7:00 PM82 °FScattered clouds.16 mph70%30.01 "HgN/A
6:00 PM84 °FPassing clouds.14 mph62%30.01 "HgN/A
5:00 PM84 °FScattered clouds.13 mph62%30.01 "HgN/A
4:00 PM84 °FSunny.12 mph55%30.01 "Hg10 mi
3:00 PM84 °FScattered clouds.7 mph55%30.04 "HgN/A
2:00 PM82 °FPartly sunny.8 mph58%30.07 "HgN/A
1:00 PM81 °FPartly sunny.7 mph66%30.07 "HgN/A
12:00 PM79 °FPartly sunny.7 mph70%30.09 "HgN/A
11:00 AM77 °FPartly sunny.7 mph74%30.09 "HgN/A
10:00 AM75 °FScattered clouds.7 mph78%30.09 "HgN/A
9:00 AM73 °FPassing clouds.5 mph89%30.07 "HgN/A
8:00 AM72 °FPassing clouds.3 mph88%30.04 "HgN/A
7:00 AM70 °FSunny.3 mph94%30.04 "Hg10 mi
6:00 AM70 °FClear.3 mph94%30.01 "Hg6 mi
5:00 AM70 °FFog.3 mph94%30.01 "Hg3 mi
4:00 AM72 °FPassing clouds.3 mph88%30.04 "HgN/A
3:00 AM72 °FPassing clouds.3 mph88%30.04 "HgN/A
2:00 AM72 °FClear.3 mph88%30.07 "Hg10 mi
1:00 AM72 °FClear.6 mph94%30.07 "Hg10 mi
12:00 AM73 °FClear.7 mph89%30.07 "Hg10 mi
Weather by CustomWeather, © 2016

See weather overviewHow to use our weather pages